MOLNIYA 1-40

Last updated on Aug. 7, 2020, 5:36 a.m. UTC

1 10925U 78055A   20218.79298969 -.00000542  00000-0  00000-0 0  9996
2 10925  62.5230 140.6521 7063975 278.2500  13.7938  2.00629219309034
UTC
Height (km)
Latitude
Longitude
Inclination
Orbital Period
UTC large
Height (km)
Speed (km/s)
/
Latitude / Longitude
Inclination (degrees)
Orbital Period (minutes)
Azimuth
Elevation
Range (km)
Doppler Factor
iOS Compass Heading
iOS Angle

Next 30 passes for location: Hong Kong

Rise time Rise Azimuth (degrees) Set time Set Azimuth (degrees) Duration Max altitude (degrees)

No matching passes for this satellites